Location: Barnston
(51.8500°N, 0.4000°E)
Time: 11:39:48
(UTC+00:00)

Cosmos 1937 Rocket - Pass Details

Date: 26 September 2023
Orbit: 744 x 779 km, 74.0° (Epoch: 28 November)

Event Time Altitude Azimuth Distance (km) Brightness Sun altitude
Exits shadow 03:01:22 40° 154° (SSE) 1,102 4.2 -25.4°
Maximum altitude 03:02:46 52° 108° (ESE) 935 4.1 -25.3°
Drops below altitude 10° 03:07:48 10° 33° (NNE) 2,293 6.8 -24.6°
Sets 03:10:14 0° 28° (NNE) 3,228 7.7 -24.3°
